Regional Weather Roundup
Issued by NWS

Home | Current Version | Previous Version | Graphics & Text | Print | Product List | Glossary On
Versions: 1 2 3 4 5 6 7 8 9 10 11 12 13 14 15 16 17 18 19 20 21 22 23 24 25 26 27 28 29 30 31 32 33 34 35 36 37 38 39 40 41 42 43 44 45 46 47 48 49 50
000
ASUS44 KMEG 061310
RWRTN
TENNESSEE HOURLY STATE WEATHER ROUNDUP
NATIONAL WEATHER SERVICE MEMPHIS TN
700 AM CST TUE DEC 06 2016

TNZ002-004-019-021-049-052-054-088>092-061400-
WEST TENNESSEE

CITY           SKY/WX    TMP DP  RH WIND       PRES   REMARKS
MEMPHIS INTL   CLOUDY    44  43  96 NW6       29.72R
NWS MEMPHIS      N/A     44 N/A N/A MISG        N/A
JACKSON        LGT RAIN  46  45  96 N13       29.66S
DYERSBURG      CLOUDY   N/A N/A N/A N8        29.70R
UNION CITY     CLOUDY    39  39 100 N8        29.69R WCI  34
PARIS          CLOUDY    39  39 100 NW6       29.67R WCI  35
HUNTINGDON     CLOUDY    45  45 100 NW6       29.66R FOG
LEXINGTON      CLOUDY    46  46 100 NE5       29.64R
$$

TNZ008-025-027-028-033-062-065-066-061400-
NORTH MIDDLE TENNESSEE

CITY           SKY/WX    TMP DP  RH WIND       PRES   REMARKS
NASHVILLE      CLOUDY    57  53  86 S6        29.59R
PORTLAND       CLOUDY    50  50 100 N8        29.62R
CLARKSVILLE    HVY RAIN  45  43  93 N5        29.62S FOG
SMYRNA         CLOUDY    56  54  93 S6        29.58F
CROSSVILLE     RAIN      52  51  97 SE10      29.66F FOG
$$

TNZ061-075-076-078-094-096-097-061400-
SOUTH MIDDLE TENNESSEE

CITY           SKY/WX    TMP DP  RH WIND       PRES   REMARKS
FAYETTEVILLE   CLOUDY    54  54 100 E7        29.60F
TULLAHOMA      CLOUDY    52  52 100 E10       29.61F
WINCHESTER     CLOUDY    52  52 100 SE12      29.61F
MCMINNVILLE    CLOUDY    54  54 100 E7        29.63F
COLUMBIA       CLOUDY   N/A N/A N/A S9        29.56R
SHELBYVILLE    CLOUDY    55  55 100 E9        29.60S
$$

TNZ017-018-042-046-047-061400-
NORTHEAST TENNESSEE

CITY           SKY/WX    TMP DP  RH WIND       PRES   REMARKS
TRI CITIES     CLOUDY    46  44  93 NE7       29.75F
ELIZABETHTON   LGT RAIN  48  43  81 E13       29.74F
$$

TNZ012-013-036-069-073-074-061400-
CENTRAL EAST TENNESSEE

CITY           SKY/WX    TMP DP  RH WIND       PRES   REMARKS
KNOXVILLE      LGT RAIN  51  49  92 N12       29.66F FOG
OAK RIDGE      RAIN      51  49  92 VRB5      29.68F
DOWNTOWN KNOXV MOCLDY    52  50  93 VRB5      29.69F
GATLINBURG     CLOUDY    48  46  93 N3        29.67F
MORRISTOWN     CLOUDY    48  46  93 NE9G17    29.70S
JACKSBORO      CLOUDY    48  48 100 CALM      29.71F FOG
$$

TNZ083-085-099-061400-
SOUTHEAST TENNESSEE

CITY           SKY/WX    TMP DP  RH WIND       PRES   REMARKS
CHATTANOOGA    RAIN      51  49  92 N7        29.70R FOG
$$

SKY/WX REPORTED AS FAIR MEANS FEW OR NO CLOUDS BELOW
12 THOUSAND FEET.





USA.gov is the U.S. government's official web portal to all federal, state and local government web resources and services.